TimeMDT,TemperatureF,Dew PointF,Humidity,Sea Level PressureIn,VisibilityMPH,Wind Direction,Wind SpeedMPH,Gust SpeedMPH,PrecipitationIn,Events,Conditions,WindDirDegrees,DateUTC
12:15 AM,34.7,23.5,64,30.29,10.0,ENE,8.1,-,N/A,,Clear,60,2014-04-15 06:15:00
12:35 AM,35.1,25.2,67,30.30,10.0,East,10.4,-,N/A,,Clear,80,2014-04-15 06:35:00
12:55 AM,35.2,25.5,68,30.28,10.0,East,6.9,-,N/A,,Clear,80,2014-04-15 06:55:00
1:15 AM,33.1,24.8,72,30.28,10.0,ENE,6.9,-,N/A,,Clear,60,2014-04-15 07:15:00
1:35 AM,33.3,24.6,71,30.28,10.0,NNE,6.9,-,N/A,,Clear,30,2014-04-15 07:35:00
1:55 AM,32.2,22.8,68,30.28,10.0,Calm,Calm,-,N/A,,Clear,0,2014-04-15 07:55:00
2:15 AM,32.0,23.7,71,30.28,10.0,Calm,Calm,-,N/A,,Clear,0,2014-04-15 08:15:00
2:35 AM,31.6,23.9,73,30.28,10.0,Calm,Calm,-,N/A,,Clear,0,2014-04-15 08:35:00
2:55 AM,32.5,23.4,69,30.28,10.0,ENE,5.8,-,N/A,,Clear,70,2014-04-15 08:55:00
3:15 AM,31.8,24.3,74,30.27,10.0,ENE,5.8,-,N/A,,Clear,60,2014-04-15 09:15:00
3:35 AM,31.3,24.6,76,30.26,10.0,NE,5.8,-,N/A,,Clear,50,2014-04-15 09:35:00
3:55 AM,31.3,24.3,75,30.26,10.0,NE,5.8,-,N/A,,Clear,50,2014-04-15 09:55:00
4:15 AM,31.6,23.5,72,30.25,10.0,ENE,6.9,-,N/A,,Clear,70,2014-04-15 10:15:00
4:35 AM,32.0,23.4,70,30.25,10.0,ESE,3.5,-,N/A,,Clear,110,2014-04-15 10:35:00
4:55 AM,30.2,23.5,76,30.24,10.0,SE,3.5,-,N/A,,Clear,130,2014-04-15 10:55:00
5:15 AM,29.3,23.0,77,30.24,10.0,Calm,Calm,-,N/A,,Clear,0,2014-04-15 11:15:00
5:35 AM,30.0,22.8,75,30.23,10.0,Calm,Calm,-,N/A,,Clear,0,2014-04-15 11:35:00
5:55 AM,29.3,22.5,76,30.23,10.0,ENE,3.5,-,N/A,,Clear,60,2014-04-15 11:55:00
6:15 AM,29.3,22.1,75,30.23,10.0,Calm,Calm,-,N/A,,Clear,0,2014-04-15 12:15:00
6:35 AM,29.7,21.9,73,30.23,10.0,Calm,Calm,-,N/A,,Clear,0,2014-04-15 12:35:00
6:55 AM,28.4,22.1,77,30.23,10.0,Calm,Calm,-,N/A,,Clear,0,2014-04-15 12:55:00
7:15 AM,29.1,23.5,80,30.23,10.0,Calm,Calm,-,N/A,,Clear,0,2014-04-15 13:15:00
7:35 AM,31.3,24.6,76,30.23,10.0,NNE,3.5,-,N/A,,Clear,30,2014-04-15 13:35:00
7:55 AM,32.7,23.5,69,30.23,10.0,NNE,3.5,-,N/A,,Clear,30,2014-04-15 13:55:00
8:15 AM,33.8,22.6,64,30.22,10.0,Calm,Calm,-,N/A,,Clear,0,2014-04-15 14:15:00
8:35 AM,35.6,23.5,62,30.21,10.0,NE,3.5,-,N/A,,Clear,40,2014-04-15 14:35:00
8:55 AM,36.9,23.0,57,30.20,10.0,ENE,4.6,-,N/A,,Clear,70,2014-04-15 14:55:00
9:15 AM,37.8,24.1,58,30.20,10.0,East,3.5,-,N/A,,Clear,80,2014-04-15 15:15:00
9:35 AM,40.1,25.0,55,30.18,10.0,East,5.8,-,N/A,,Clear,80,2014-04-15 15:35:00
9:55 AM,41.2,25.5,54,30.17,10.0,Calm,Calm,-,N/A,,Clear,0,2014-04-15 15:55:00
10:15 AM,42.6,23.9,48,30.17,10.0,Calm,Calm,-,N/A,,Clear,0,2014-04-15 16:15:00
10:55 AM,45.3,23.0,41,30.15,10.0,ESE,3.5,-,N/A,,Clear,110,2014-04-15 16:55:00
11:15 AM,47.8,22.5,37,30.13,10.0,Calm,Calm,-,N/A,,Clear,0,2014-04-15 17:15:00
11:55 AM,51.3,21.0,31,30.11,10.0,ESE,5.8,-,N/A,,Clear,120,2014-04-15 17:55:00
12:15 PM,53.2,15.6,23,30.09,10.0,East,4.6,-,N/A,,Clear,100,2014-04-15 18:15:00
12:35 PM,54.9,18.1,24,30.08,10.0,ESE,4.6,-,N/A,,Clear,110,2014-04-15 18:35:00
12:55 PM,55.0,17.6,23,30.06,10.0,South,3.5,-,N/A,,Clear,180,2014-04-15 18:55:00
1:15 PM,55.8,18.5,23,30.05,10.0,ESE,3.5,-,N/A,,Clear,120,2014-04-15 19:15:00
1:35 PM,57.0,18.5,22,30.03,10.0,Calm,Calm,-,N/A,,Clear,0,2014-04-15 19:35:00
1:55 PM,59.0,18.5,21,30.02,10.0,South,5.8,-,N/A,,Clear,170,2014-04-15 19:55:00
2:15 PM,59.2,18.0,20,30.00,10.0,SSW,5.8,-,N/A,,Clear,200,2014-04-15 20:15:00
2:35 PM,60.6,16.9,18,29.99,10.0,South,3.5,-,N/A,,Clear,170,2014-04-15 20:35:00
2:55 PM,59.2,17.4,20,29.98,10.0,Calm,Calm,-,N/A,,Clear,0,2014-04-15 20:55:00
3:15 PM,60.1,17.1,19,29.96,10.0,Calm,Calm,-,N/A,,Clear,0,2014-04-15 21:15:00
3:35 PM,61.7,17.4,18,29.95,10.0,Calm,Calm,-,N/A,,Clear,0,2014-04-15 21:35:00
3:55 PM,62.6,16.7,17,29.94,10.0,South,3.5,-,N/A,,Clear,180,2014-04-15 21:55:00
4:15 PM,62.4,16.3,17,29.92,10.0,East,3.5,-,N/A,,Clear,80,2014-04-15 22:15:00
4:35 PM,62.4,16.9,17,29.91,10.0,South,3.5,-,N/A,,Clear,190,2014-04-15 22:35:00
4:55 PM,63.1,16.5,16,29.89,10.0,Calm,Calm,-,N/A,,Clear,0,2014-04-15 22:55:00
5:15 PM,62.6,16.0,16,29.89,10.0,Calm,Calm,-,N/A,,Clear,0,2014-04-15 23:15:00
5:35 PM,64.2,16.7,16,29.88,10.0,ESE,3.5,-,N/A,,Clear,110,2014-04-15 23:35:00
5:55 PM,63.7,15.8,16,29.87,10.0,Calm,Calm,-,N/A,,Clear,0,2014-04-15 23:55:00
6:15 PM,64.4,16.9,16,29.87,10.0,Calm,Calm,-,N/A,,Clear,0,2014-04-16 00:15:00
6:35 PM,64.0,17.8,17,29.86,10.0,Calm,Calm,-,N/A,,Clear,0,2014-04-16 00:35:00
6:55 PM,63.3,17.8,17,29.85,10.0,Calm,Calm,-,N/A,,Clear,0,2014-04-16 00:55:00
7:15 PM,62.6,20.5,20,29.85,10.0,Calm,Calm,-,N/A,,Clear,0,2014-04-16 01:15:00
7:35 PM,60.4,21.7,23,29.85,10.0,Calm,Calm,-,N/A,,Clear,0,2014-04-16 01:35:00
7:55 PM,57.0,25.3,30,29.85,10.0,Calm,Calm,-,N/A,,Clear,0,2014-04-16 01:55:00
8:15 PM,54.5,28.8,37,29.85,10.0,North,3.5,-,N/A,,Clear,10,2014-04-16 02:15:00
8:35 PM,52.5,30.4,43,29.86,10.0,North,4.6,-,N/A,,Clear,360,2014-04-16 02:35:00
8:55 PM,52.5,29.1,41,29.86,10.0,Calm,Calm,-,N/A,,Clear,0,2014-04-16 02:55:00
9:15 PM,51.8,29.1,42,29.86,10.0,NE,4.6,-,N/A,,Clear,50,2014-04-16 03:15:00
9:35 PM,51.1,30.0,44,29.86,10.0,ENE,4.6,-,N/A,,Clear,60,2014-04-16 03:35:00
9:55 PM,52.0,22.8,32,29.86,10.0,Calm,Calm,-,N/A,,Clear,0,2014-04-16 03:55:00
10:15 PM,51.1,27.3,40,29.86,10.0,East,4.6,-,N/A,,Clear,80,2014-04-16 04:15:00
10:35 PM,48.7,29.1,47,29.85,10.0,NNE,6.9,-,N/A,,Clear,30,2014-04-16 04:35:00
10:55 PM,48.7,26.6,42,29.85,10.0,NNE,8.1,-,N/A,,Clear,20,2014-04-16 04:55:00
11:15 PM,48.4,25.2,40,29.85,10.0,North,9.2,-,N/A,,Clear,10,2014-04-16 05:15:00
11:35 PM,48.2,24.4,39,29.84,10.0,North,9.2,-,N/A,,Clear,10,2014-04-16 05:35:00
11:55 PM,46.4,25.2,43,29.84,10.0,North,8.1,-,N/A,,Clear,360,2014-04-16 05:55:00